EXPRESS AMU-3

Last updated on Sat Apr 13 2024 01:02:40 GMT+0100 (British Summer Time)

1 50002U 21123B 24103.15594297 -.00000330 00000+0 00000+0 0 9993 2 50002 0.0254 257.2899 0000250 48.5783 54.1214 1.00272561 8542
UTC large
Height (km)
Speed (km/s)
/
Latitude / Longitude
Inclination (degrees)
Orbital Period (minutes)
Azimuth
Elevation
Range (km)
Doppler Factor

Next 0 passes for location: London (51.5072 / 0.1276)

Sorry there are no passes over London.